<?xml version="1.0" encoding="utf-8"?>
<gpx xmlns:xsi="http://www.w3.org/2001/XMLSchema-instance" xmlns:xsd="http://www.w3.org/2001/XMLSchema" version="1.1" creator="Shapelink.com" xmlns="http://www.topografix.com/GPX/1/1" xmlns:gpxtpx="http://www.garmin.com/xmlschemas/TrackPointExtension/v1">
  <metadata>
    <name>Nordisk skikjøring 1.38 km, 2026-02-21</name>
    <desc></desc>
    <author><name>Elina Lövgren</name></author> 
    <time>1970-01-01T01:00:00Z</time>
  </metadata>
  <trk>
    <name>Nordisk skikjøring 1.38 km, 2026-02-21</name>
    <trkseg>
      <trkpt lat="64.21017" lon="19.727617">
        <ele>193.571</ele>
        <time>1970-01-01T01:00:00Z</time>
      </trkpt>
      <trkpt lat="64.210266" lon="19.727646">
        <ele>193.875</ele>
        <time>1970-01-01T01:00:00Z</time>
      </trkpt>
      <trkpt lat="64.21037" lon="19.727655">
        <ele>194.111</ele>
        <time>1970-01-01T01:00:00Z</time>
      </trkpt>
      <trkpt lat="64.21048" lon="19.727663">
        <ele>194.4</ele>
        <time>1970-01-01T01:00:00Z</time>
      </trkpt>
      <trkpt lat="64.210579" lon="19.727629">
        <ele>194.636</ele>
        <time>1970-01-01T01:00:00Z</time>
      </trkpt>
      <trkpt lat="64.21068" lon="19.727577">
        <ele>195.091</ele>
        <time>1970-01-01T01:00:00Z</time>
      </trkpt>
      <trkpt lat="64.21077" lon="19.72753">
        <ele>195.545</ele>
        <time>1970-01-01T01:00:00Z</time>
      </trkpt>
      <trkpt lat="64.210849" lon="19.72743">
        <ele>196</ele>
        <time>1970-01-01T01:00:00Z</time>
      </trkpt>
      <trkpt lat="64.210939" lon="19.727304">
        <ele>196.364</ele>
        <time>1970-01-01T01:00:00Z</time>
      </trkpt>
      <trkpt lat="64.21101" lon="19.72718">
        <ele>196.818</ele>
        <time>1970-01-01T01:00:00Z</time>
      </trkpt>
      <trkpt lat="64.21109" lon="19.727049">
        <ele>197.182</ele>
        <time>1970-01-01T01:00:00Z</time>
      </trkpt>
      <trkpt lat="64.211169" lon="19.726913">
        <ele>197.545</ele>
        <time>1970-01-01T01:00:00Z</time>
      </trkpt>
      <trkpt lat="64.21124" lon="19.726776">
        <ele>197.818</ele>
        <time>1970-01-01T01:00:00Z</time>
      </trkpt>
      <trkpt lat="64.21132" lon="19.726645">
        <ele>198.091</ele>
        <time>1970-01-01T01:00:00Z</time>
      </trkpt>
      <trkpt lat="64.211394" lon="19.726517">
        <ele>198.273</ele>
        <time>1970-01-01T01:00:00Z</time>
      </trkpt>
      <trkpt lat="64.211464" lon="19.726366">
        <ele>198.455</ele>
        <time>1970-01-01T01:00:00Z</time>
      </trkpt>
      <trkpt lat="64.21151" lon="19.726181">
        <ele>198.727</ele>
        <time>1970-01-01T01:00:00Z</time>
      </trkpt>
      <trkpt lat="64.211569" lon="19.726006">
        <ele>199</ele>
        <time>1970-01-01T01:00:00Z</time>
      </trkpt>
      <trkpt lat="64.211624" lon="19.725794">
        <ele>199.182</ele>
        <time>1970-01-01T01:00:00Z</time>
      </trkpt>
      <trkpt lat="64.211659" lon="19.7256">
        <ele>199.273</ele>
        <time>1970-01-01T01:00:00Z</time>
      </trkpt>
      <trkpt lat="64.21172" lon="19.725435">
        <ele>199.364</ele>
        <time>1970-01-01T01:00:00Z</time>
      </trkpt>
      <trkpt lat="64.21181" lon="19.725273">
        <ele>199.455</ele>
        <time>1970-01-01T01:00:00Z</time>
      </trkpt>
      <trkpt lat="64.211876" lon="19.725119">
        <ele>199.545</ele>
        <time>1970-01-01T01:00:00Z</time>
      </trkpt>
      <trkpt lat="64.211945" lon="19.724966">
        <ele>199.636</ele>
        <time>1970-01-01T01:00:00Z</time>
      </trkpt>
      <trkpt lat="64.21198" lon="19.724775">
        <ele>199.818</ele>
        <time>1970-01-01T01:00:00Z</time>
      </trkpt>
      <trkpt lat="64.212019" lon="19.724585">
        <ele>200</ele>
        <time>1970-01-01T01:00:00Z</time>
      </trkpt>
      <trkpt lat="64.2121" lon="19.724438">
        <ele>200.273</ele>
        <time>1970-01-01T01:00:00Z</time>
      </trkpt>
      <trkpt lat="64.21216" lon="19.724264">
        <ele>200.545</ele>
        <time>1970-01-01T01:00:00Z</time>
      </trkpt>
      <trkpt lat="64.212239" lon="19.724096">
        <ele>200.818</ele>
        <time>1970-01-01T01:00:00Z</time>
      </trkpt>
      <trkpt lat="64.21234" lon="19.724014">
        <ele>201.182</ele>
        <time>1970-01-01T01:00:00Z</time>
      </trkpt>
      <trkpt lat="64.212424" lon="19.723946">
        <ele>201.545</ele>
        <time>1970-01-01T01:00:00Z</time>
      </trkpt>
      <trkpt lat="64.21252" lon="19.723965">
        <ele>201.727</ele>
        <time>1970-01-01T01:00:00Z</time>
      </trkpt>
      <trkpt lat="64.21261" lon="19.723982">
        <ele>201.818</ele>
        <time>1970-01-01T01:00:00Z</time>
      </trkpt>
      <trkpt lat="64.212689" lon="19.7239">
        <ele>201.818</ele>
        <time>1970-01-01T01:00:00Z</time>
      </trkpt>
      <trkpt lat="64.212779" lon="19.723818">
        <ele>201.727</ele>
        <time>1970-01-01T01:00:00Z</time>
      </trkpt>
      <trkpt lat="64.21277" lon="19.723593">
        <ele>201.545</ele>
        <time>1970-01-01T01:00:00Z</time>
      </trkpt>
      <trkpt lat="64.21268" lon="19.723343">
        <ele>201.273</ele>
        <time>1970-01-01T01:00:00Z</time>
      </trkpt>
      <trkpt lat="64.212599" lon="19.723177">
        <ele>200.909</ele>
        <time>1970-01-01T01:00:00Z</time>
      </trkpt>
      <trkpt lat="64.21249" lon="19.723032">
        <ele>200.455</ele>
        <time>1970-01-01T01:00:00Z</time>
      </trkpt>
      <trkpt lat="64.21239" lon="19.722944">
        <ele>199.909</ele>
        <time>1970-01-01T01:00:00Z</time>
      </trkpt>
      <trkpt lat="64.2123" lon="19.723007">
        <ele>199.273</ele>
        <time>1970-01-01T01:00:00Z</time>
      </trkpt>
      <trkpt lat="64.212204" lon="19.72315">
        <ele>198.727</ele>
        <time>1970-01-01T01:00:00Z</time>
      </trkpt>
      <trkpt lat="64.21213" lon="19.72332">
        <ele>198.273</ele>
        <time>1970-01-01T01:00:00Z</time>
      </trkpt>
      <trkpt lat="64.21205" lon="19.723501">
        <ele>197.909</ele>
        <time>1970-01-01T01:00:00Z</time>
      </trkpt>
      <trkpt lat="64.211969" lon="19.723673">
        <ele>197.636</ele>
        <time>1970-01-01T01:00:00Z</time>
      </trkpt>
      <trkpt lat="64.21189" lon="19.72385">
        <ele>197.455</ele>
        <time>1970-01-01T01:00:00Z</time>
      </trkpt>
      <trkpt lat="64.21182" lon="19.724022">
        <ele>197.273</ele>
        <time>1970-01-01T01:00:00Z</time>
      </trkpt>
      <trkpt lat="64.21177" lon="19.724205">
        <ele>197.182</ele>
        <time>1970-01-01T01:00:00Z</time>
      </trkpt>
      <trkpt lat="64.21171" lon="19.724379">
        <ele>197.091</ele>
        <time>1970-01-01T01:00:00Z</time>
      </trkpt>
      <trkpt lat="64.21165" lon="19.72459">
        <ele>197</ele>
        <time>1970-01-01T01:00:00Z</time>
      </trkpt>
      <trkpt lat="64.211586" lon="19.724752">
        <ele>197</ele>
        <time>1970-01-01T01:00:00Z</time>
      </trkpt>
      <trkpt lat="64.211524" lon="19.724905">
        <ele>197</ele>
        <time>1970-01-01T01:00:00Z</time>
      </trkpt>
      <trkpt lat="64.21146" lon="19.725058">
        <ele>197</ele>
        <time>1970-01-01T01:00:00Z</time>
      </trkpt>
      <trkpt lat="64.211524" lon="19.724918">
        <ele>197</ele>
        <time>1970-01-01T01:00:00Z</time>
      </trkpt>
      <trkpt lat="64.211609" lon="19.724833">
        <ele>197</ele>
        <time>1970-01-01T01:00:00Z</time>
      </trkpt>
      <trkpt lat="64.211659" lon="19.724663">
        <ele>196.909</ele>
        <time>1970-01-01T01:00:00Z</time>
      </trkpt>
      <trkpt lat="64.211715" lon="19.72448">
        <ele>196.818</ele>
        <time>1970-01-01T01:00:00Z</time>
      </trkpt>
      <trkpt lat="64.21164" lon="19.724653">
        <ele>196.727</ele>
        <time>1970-01-01T01:00:00Z</time>
      </trkpt>
      <trkpt lat="64.21158" lon="19.724815">
        <ele>196.545</ele>
        <time>1970-01-01T01:00:00Z</time>
      </trkpt>
      <trkpt lat="64.21151" lon="19.724993">
        <ele>196.364</ele>
        <time>1970-01-01T01:00:00Z</time>
      </trkpt>
      <trkpt lat="64.21145" lon="19.725143">
        <ele>196.182</ele>
        <time>1970-01-01T01:00:00Z</time>
      </trkpt>
      <trkpt lat="64.21136" lon="19.725224">
        <ele>196</ele>
        <time>1970-01-01T01:00:00Z</time>
      </trkpt>
      <trkpt lat="64.21125" lon="19.725382">
        <ele>195.818</ele>
        <time>1970-01-01T01:00:00Z</time>
      </trkpt>
      <trkpt lat="64.211169" lon="19.725487">
        <ele>195.636</ele>
        <time>1970-01-01T01:00:00Z</time>
      </trkpt>
      <trkpt lat="64.2111" lon="19.725626">
        <ele>195.455</ele>
        <time>1970-01-01T01:00:00Z</time>
      </trkpt>
      <trkpt lat="64.21101" lon="19.725815">
        <ele>195.273</ele>
        <time>1970-01-01T01:00:00Z</time>
      </trkpt>
      <trkpt lat="64.21096" lon="19.726027">
        <ele>195.182</ele>
        <time>1970-01-01T01:00:00Z</time>
      </trkpt>
      <trkpt lat="64.210883" lon="19.726202">
        <ele>195.091</ele>
        <time>1970-01-01T01:00:00Z</time>
      </trkpt>
      <trkpt lat="64.210815" lon="19.726406">
        <ele>194.909</ele>
        <time>1970-01-01T01:00:00Z</time>
      </trkpt>
      <trkpt lat="64.21078" lon="19.726608">
        <ele>194.818</ele>
        <time>1970-01-01T01:00:00Z</time>
      </trkpt>
      <trkpt lat="64.21075" lon="19.726845">
        <ele>194.636</ele>
        <time>1970-01-01T01:00:00Z</time>
      </trkpt>
      <trkpt lat="64.21071" lon="19.727034">
        <ele>194.364</ele>
        <time>1970-01-01T01:00:00Z</time>
      </trkpt>
      <trkpt lat="64.21064" lon="19.727182">
        <ele>194.091</ele>
        <time>1970-01-01T01:00:00Z</time>
      </trkpt>
      <trkpt lat="64.210556" lon="19.727287">
        <ele>193.727</ele>
        <time>1970-01-01T01:00:00Z</time>
      </trkpt>
      <trkpt lat="64.210464" lon="19.727398">
        <ele>193.364</ele>
        <time>1970-01-01T01:00:00Z</time>
      </trkpt>
      <trkpt lat="64.210364" lon="19.7274">
        <ele>192.909</ele>
        <time>1970-01-01T01:00:00Z</time>
      </trkpt>
      <trkpt lat="64.21026" lon="19.72736">
        <ele>192.364</ele>
        <time>1970-01-01T01:00:00Z</time>
      </trkpt>
      <trkpt lat="64.210175" lon="19.727287">
        <ele>191.818</ele>
        <time>1970-01-01T01:00:00Z</time>
      </trkpt>
      <trkpt lat="64.21006" lon="19.72718">
        <ele>191.182</ele>
        <time>1970-01-01T01:00:00Z</time>
      </trkpt>
      <trkpt lat="64.209946" lon="19.727066">
        <ele>190.636</ele>
        <time>1970-01-01T01:00:00Z</time>
      </trkpt>
      <trkpt lat="64.20985" lon="19.726955">
        <ele>190</ele>
        <time>1970-01-01T01:00:00Z</time>
      </trkpt>
      <trkpt lat="64.209755" lon="19.726849">
        <ele>189.455</ele>
        <time>1970-01-01T01:00:00Z</time>
      </trkpt>
      <trkpt lat="64.20968" lon="19.726742">
        <ele>188.909</ele>
        <time>1970-01-01T01:00:00Z</time>
      </trkpt>
      <trkpt lat="64.209599" lon="19.726585">
        <ele>188.364</ele>
        <time>1970-01-01T01:00:00Z</time>
      </trkpt>
      <trkpt lat="64.20952" lon="19.72641">
        <ele>187.909</ele>
        <time>1970-01-01T01:00:00Z</time>
      </trkpt>
      <trkpt lat="64.209435" lon="19.726223">
        <ele>187.455</ele>
        <time>1970-01-01T01:00:00Z</time>
      </trkpt>
      <trkpt lat="64.209366" lon="19.72604">
        <ele>187.091</ele>
        <time>1970-01-01T01:00:00Z</time>
      </trkpt>
      <trkpt lat="64.209289" lon="19.725851">
        <ele>186.818</ele>
        <time>1970-01-01T01:00:00Z</time>
      </trkpt>
      <trkpt lat="64.20921" lon="19.725664">
        <ele>186.545</ele>
        <time>1970-01-01T01:00:00Z</time>
      </trkpt>
      <trkpt lat="64.209149" lon="19.725475">
        <ele>186.364</ele>
        <time>1970-01-01T01:00:00Z</time>
      </trkpt>
      <trkpt lat="64.20907" lon="19.725283">
        <ele>186.182</ele>
        <time>1970-01-01T01:00:00Z</time>
      </trkpt>
      <trkpt lat="64.209" lon="19.725113">
        <ele>186.091</ele>
        <time>1970-01-01T01:00:00Z</time>
      </trkpt>
      <trkpt lat="64.20891" lon="19.724949">
        <ele>186</ele>
        <time>1970-01-01T01:00:00Z</time>
      </trkpt>
      <trkpt lat="64.2088" lon="19.72487">
        <ele>186</ele>
        <time>1970-01-01T01:00:00Z</time>
      </trkpt>
      <trkpt lat="64.20871" lon="19.72499">
        <ele>186</ele>
        <time>1970-01-01T01:00:00Z</time>
      </trkpt>
      <trkpt lat="64.2086" lon="19.725056">
        <ele>186</ele>
        <time>1970-01-01T01:00:00Z</time>
      </trkpt>
      <trkpt lat="64.2085" lon="19.725079">
        <ele>186</ele>
        <time>1970-01-01T01:00:00Z</time>
      </trkpt>
      <trkpt lat="64.20841" lon="19.725098">
        <ele>186</ele>
        <time>1970-01-01T01:00:00Z</time>
      </trkpt>
      <trkpt lat="64.2085" lon="19.725143">
        <ele>186</ele>
        <time>1970-01-01T01:00:00Z</time>
      </trkpt>
      <trkpt lat="64.2086" lon="19.725132">
        <ele>186</ele>
        <time>1970-01-01T01:00:00Z</time>
      </trkpt>
      <trkpt lat="64.208699" lon="19.72522">
        <ele>186</ele>
        <time>1970-01-01T01:00:00Z</time>
      </trkpt>
      <trkpt lat="64.20877" lon="19.725378">
        <ele>186</ele>
        <time>1970-01-01T01:00:00Z</time>
      </trkpt>
      <trkpt lat="64.20883" lon="19.725527">
        <ele>186</ele>
        <time>1970-01-01T01:00:00Z</time>
      </trkpt>
      <trkpt lat="64.20892" lon="19.72576">
        <ele>186</ele>
        <time>1970-01-01T01:00:00Z</time>
      </trkpt>
      <trkpt lat="64.20899" lon="19.725939">
        <ele>186.091</ele>
        <time>1970-01-01T01:00:00Z</time>
      </trkpt>
      <trkpt lat="64.20907" lon="19.726099">
        <ele>186.091</ele>
        <time>1970-01-01T01:00:00Z</time>
      </trkpt>
      <trkpt lat="64.20914" lon="19.72627">
        <ele>186.091</ele>
        <time>1970-01-01T01:00:00Z</time>
      </trkpt>
      <trkpt lat="64.20921" lon="19.726389">
        <ele>186.091</ele>
        <time>1970-01-01T01:00:00Z</time>
      </trkpt>
      <trkpt lat="64.2093" lon="19.726477">
        <ele>186.091</ele>
        <time>1970-01-01T01:00:00Z</time>
      </trkpt>
      <trkpt lat="64.209366" lon="19.726624">
        <ele>186.091</ele>
        <time>1970-01-01T01:00:00Z</time>
      </trkpt>
      <trkpt lat="64.2093" lon="19.726437">
        <ele>186.091</ele>
        <time>1970-01-01T01:00:00Z</time>
      </trkpt>
      <trkpt lat="64.209236" lon="19.726248">
        <ele>186.091</ele>
        <time>1970-01-01T01:00:00Z</time>
      </trkpt>
      <trkpt lat="64.20916" lon="19.726103">
        <ele>186.091</ele>
        <time>1970-01-01T01:00:00Z</time>
      </trkpt>
      <trkpt lat="64.20907" lon="19.725979">
        <ele>186.091</ele>
        <time>1970-01-01T01:00:00Z</time>
      </trkpt>
      <trkpt lat="64.20899" lon="19.725807">
        <ele>186.091</ele>
        <time>1970-01-01T01:00:00Z</time>
      </trkpt>
      <trkpt lat="64.20892" lon="19.725632">
        <ele>186</ele>
        <time>1970-01-01T01:00:00Z</time>
      </trkpt>
      <trkpt lat="64.20885" lon="19.725458">
        <ele>186</ele>
        <time>1970-01-01T01:00:00Z</time>
      </trkpt>
      <trkpt lat="64.20877" lon="19.725325">
        <ele>186</ele>
        <time>1970-01-01T01:00:00Z</time>
      </trkpt>
      <trkpt lat="64.20869" lon="19.72518">
        <ele>186</ele>
        <time>1970-01-01T01:00:00Z</time>
      </trkpt>
      <trkpt lat="64.208595" lon="19.7251">
        <ele>186</ele>
        <time>1970-01-01T01:00:00Z</time>
      </trkpt>
      <trkpt lat="64.208496" lon="19.725113">
        <ele>186</ele>
        <time>1970-01-01T01:00:00Z</time>
      </trkpt>
      <trkpt lat="64.2084" lon="19.725138">
        <ele>186</ele>
        <time>1970-01-01T01:00:00Z</time>
      </trkpt>
    </trkseg>
  </trk>
</gpx>